Regional Weather Roundup
Issued by NWS

Home | Current Version | Previous Version | Graphics & Text | Print | Product List | Glossary On
Versions: 1 2 3 4 5 6 7 8 9 10 11 12 13 14 15 16 17 18 19 20 21 22 23 24 25 26 27 28 29 30 31 32 33 34 35 36 37 38 39 40 41 42 43 44 45 46 47 48 49 50
000
ASUS45 KTFX 292210
RWRMT
MONTANA REGIONAL WEATHER ROUNDUP
NATIONAL WEATHER SERVICE GREAT FALLS MT
400 PM MDT SAT APR 29 2017

NOTE: "FAIR" INDICATES FEW OR NO CLOUDS BELOW 12000 FEET WITH NO
SIGNIFICANT WEATHER AND/OR OBSTRUCTIONS TO VISIBILITY.

MTZ001>007-043-292300-
WEST OF THE DIVIDE

CITY           SKY/WX    TMP DP  RH WIND       PRES   REMARKS
KALISPELL      PTSUNNY   50  39  66 SE9       30.14F
MISSOULA       PTSUNNY   54  31  41 SW5       30.14F
BUTTE          PTSUNNY   52  17  25 MISG      30.11F
MULLAN PASS    CLOUDY    37  29  72 VRB5      30.16F
ANACONDA         N/A     54  16  22 SW5       30.10F
DEER LODGE       N/A     54  23  30 CALM      30.14F
EUREKA           N/A     55  28  35 NW7       30.10F
HAMILTON         N/A     57  21  24 E6        30.12F
LIBBY            N/A     55  28  35 S5        30.11F
PLAINS           N/A     57  35  43 NW7       30.14F
$$

MTZ008-052>055-292300-
SOUTHWEST MONTANA

CITY           SKY/WX    TMP DP  RH WIND       PRES   REMARKS
BOZEMAN        MOSUNNY   52  27  38 VRB6      30.13F
DILLON         SUNNY     55  20  25 S12G20    30.10F
W YELLOWSTONE  MOSUNNY   45  14  29 CALM      30.16F
ENNIS          MOSUNNY   50  21  32 S7        30.18F
THREE FORKS      N/A     56  56 100 SE5       30.10F
TWIN BRIDGES     N/A     54  20  26 SE2       30.10F
$$

MTZ009-010-012-014-046-048-049-054-292300-
EAST SLOPES AND CENTRAL MONTANA

CITY           SKY/WX    TMP DP  RH WIND       PRES   REMARKS
CUT BANK       MOSUNNY   55  24  30 SW17G28   30.06F
GREAT FALLS    PTSUNNY   56  25  30 W8        30.09F
MALMSTROM AFB  MOSUNNY   56  27  32 W10G20    30.09F
HELENA         CLOUDY    56  22  26 VRB6      30.10F
AUGUSTA        PTSUNNY   50  22  32 S3        30.09F
BOWMANS CRNR     N/A     54  20  27 SW18      30.07F
CHOTEAU          N/A     57  23  26 W12       30.10F
FAIRFIELD      PTSUNNY   55  25  32 S7        30.08F
POWER            N/A     53  25  34 W9G20     30.07F
RAYNESFORD     PTSUNNY   53  29  39 NW7G23    30.10F
ULM              N/A     55  30  38 NW9       30.09F
$$

MTZ011-013-016-021-045-047-050-051-292300-
NORTH CENTRAL MONTANA

CITY           SKY/WX    TMP DP  RH WIND       PRES   REMARKS
HAVRE          PTSUNNY   51  38  60 E7        30.09F
LEWISTOWN      PTSUNNY   48  33  56 S21G26    30.13F
CHINOOK          N/A     57  30  35 SW14      30.08F
DENTON         PTSUNNY   52  37  57 S14       30.07F
FORT BENTON      N/A     57  30  35 MISG      30.11F
GEYSER         PTSUNNY   55  22  28 W12       30.08F
GRASS RANGE    LGT RAIN  44  38  80 N7        30.12R
JUDITH GAP       N/A     49  33  54 S18G26    30.13F
STANFORD         N/A     53  23  30 SW13G20   30.09F
WINIFRED         N/A     54  30  40 S9        30.10F
$$

MTZ017>020-022>027-061-062-292300-
NORTHEAST MONTANA

CITY           SKY/WX    TMP DP  RH WIND       PRES   REMARKS
GLASGOW        CLOUDY    58  31  35 W7        30.14F
JORDAN           N/A     59  30  33 S8G17     30.14F
SIDNEY         MOSUNNY   59  35  40 W13       30.18F
WOLF POINT     PTSUNNY   61  32  33 SE6       30.15F
PLENTYWOOD       N/A     57  27  30 SW9       30.17F
POPLAR           N/A     59  30  33 E5        30.16F
SCOBEY           N/A     59  26  28 SW6       30.14F
$$

MTZ028>42-056>058-292300-
SOUTHCENTRAL AND SOUTHEAST MONTANA

CITY           SKY/WX    TMP DP  RH WIND       PRES   REMARKS
BAKER          PTSUNNY   59  24  26 NE6       30.19F
BILLINGS       MOSUNNY   54  27  35 S12G20    30.15F
LIVINGSTON     SUNNY     55  27  34 W12G17    30.12F
MILES CITY     MOSUNNY   60  26  27 S6        30.16F
BIG TIMBER     SUNNY     52  34  50 E8        30.16F
EKALAKA          N/A     56  19  23 E6        30.15F
LAUREL           N/A     56  27  33 S6        30.13F
ROUNDUP          N/A     54  29  38 S12       30.05F
$$

REGIONAL REPORTS...DAKOTAS

CITY           SKY/WX    TMP DP  RH WIND       PRES   REMARKS
WILLISTON      MOSUNNY   63  32  31 W7        30.17F
MINOT          CLOUDY    63  26  24 SW13      30.18F
DICKINSON      MOSUNNY   59  17  19 CALM      30.17F
BEACH            N/A     57  21  24 SW6       30.21F
TIOGA            N/A     59  27  29 W10G20    30.19F
WATFORD CITY     N/A     59  30  33 SW5       30.18F
BISMARCK       SUNNY     62  18  18 E5        30.23F
GRAND FORKS    MOSUNNY   60  24  25 S5        30.29F
FARGO          SUNNY     61  19  19 N6        30.27F
BUFFALO SD       N/A     58  17  20 E5        30.13F
RAPID CITY     MOSUNNY   54  18  24 E8G20     30.19F
$$

REGIONAL REPORTS...WYOMING/IDAHO/WASHINGTON

CITY           SKY/WX    TMP DP  RH WIND       PRES   REMARKS
GILLETTE       SUNNY     38  26  62 SW3       30.22F
SHERIDAN       SUNNY     43  29  57 SE12      30.20F
BUFFALO WY     SUNNY     39  26  59 SE14      30.20F WCI  31
CODY           SUNNY     47  24  40 S8        30.18F
YELLOWSTONE LA   N/A     37  18  46 E7        30.20S WCI  32
IDAHO FALLS    MOSUNNY   53  22  29 VRB3      30.19F
SALMON         MOSUNNY   57  27  30 N8        30.09F
BOISE          MOSUNNY   60  26  27 N10       30.20F
SPOKANE        CLOUDY    57  31  37 SW17G23   30.14F
$$

REGIONAL REPORTS...ALBERTA

CITY           SKY/WX    TMP DP  RH WIND       PRES   REMARKS
EDMONTON       MOSUNNY   54  34  47 S15       29.97F
CALGARY        PTSUNNY   54  23  30 S14       29.97F
LETHBRIDGE     PTSUNNY   59  27  29 W22G28    30.01F
MEDICINE HAT   PTSUNNY   59  27  29 W12G23    30.00F
WATERTON GATE    N/A     48  27  43 SW16G23     N/A
MILK RIVER       N/A     55  27  33 W9          N/A
$$

REGIONAL REPORTS...SASKATCHEWAN

CITY           SKY/WX    TMP DP  RH WIND       PRES   REMARKS
SWIFT CURRENT  PTSUNNY   54  28  37 S9        30.08F
REGINA         PTSUNNY   59  25  27 W15G26    30.15F
SASKATOON      PTSUNNY   54  19  26 W3        30.10F
CYPRESS HILLS    N/A     50  34  53 S12         N/A
VAL MARIE        N/A     57  27  30 S15         N/A
ROCKGLEN         N/A     54  28  37 SW10        N/A
ASSINIBOIA       N/A     54  30  40 S9          N/A
$$



USA.gov is the U.S. government's official web portal to all federal, state and local government web resources and services.